Find WHDW 06-09

NORAD ID: 65051 Int'l Des: 2025-162 Owner: ZXW Country: CN Constellation: xingwang operational
LEOCIRCULAR

Aktuelle Ansicht

3D-Globus wird geladen...

Über WHDW 06-09

Beschreibung wird geladen...

Nächste Überflüge

Passes for default location (London). Set your location on the main map for personalized predictions.

Höhenverlauf

Loading altitude history...

Zweizeiliger Elementsatz

1 65051U 25162J 26151.03358389 -.00000096 00000-0 59420-4 0 9997
2 65051 50.0052 326.9844 0000465 66.3805 293.7116 13.29324441 41085
Epoch: 31. Mai 2026 • Age: 13 hours

Aktueller Status

Höhe 1151.6 km
Geschwindigkeit 7.28 km/s
Subsatellitenpunkt 35.65°N, 7.79°E
Startdatum 30. Juli 2025
Alter 0.8 years
Typ other

Technische Details

Klassifizierung Payload
Masse 800.00 kg
Trockenmasse 800.00 kg
Gesamtmasse 800.00 kg
Länge 3.00 m
Durchmesser 1.00 m
Spannweite 10.00 m
Form Box + 2 Pan
Hersteller SECM
Bus-Typ Xingwang S
Phasenstatus In Orbit
Besitzer/Staat ZXW/CN

Most Searched